This is the latest recevied weather packets stored in our database for station/object HF3P-11. If no packets are shown the sender has not sent any weather packets the latest 10 day(s).
| Time | Temp. | Humidity | Pressure | Rain* | Wind** | Luminosity | Snow |
|---|---|---|---|---|---|---|---|
| 1778080810 | 18.89° C | 74% | 998 hPa | 0 mm | - | - | - |
| 1778080510 | 18.33° C | 73% | 997.9 hPa | 0 mm | - | - | - |
| 1778080199 | 18.89° C | 73% | 997.9 hPa | 0 mm | - | - | - |
| 1778079907 | 18.89° C | 72% | 998 hPa | 0 mm | - | - | - |
| 1778079599 | 18.89° C | 72% | 998.1 hPa | 0 mm | - | - | - |
| 1778079308 | 18.89° C | 71% | 998 hPa | 0 mm | - | - | - |
| 1778079000 | 19.44° C | 71% | 998.1 hPa | 0 mm | - | - | - |
| 1778078707 | 19.44° C | 70% | 997.9 hPa | 0 mm | - | - | - |
| 1778078400 | 19.44° C | 69% | 997.9 hPa | 0 mm | - | - | - |
| 1778078107 | 19.44° C | 70% | 997.8 hPa | 0 mm | - | - | - |
| 1778077810 | 19.44° C | 69% | 997.8 hPa | 0 mm | - | - | - |
| 1778077499 | 19.44° C | 68% | 997.9 hPa | 0 mm | - | - | - |
| 1778077207 | 20° C | 68% | 997.9 hPa | 0 mm | - | - | - |
| 1778076899 | 20.56° C | 68% | 997.8 hPa | 0 mm | - | - | - |
| 1778076609 | 20° C | 69% | 997.7 hPa | 0 mm | - | - | - |
| 1778076299 | 19.44° C | 70% | 997.9 hPa | 0 mm | - | - | - |
| 1778076008 | 19.44° C | 70% | 997.6 hPa | 0 mm | - | - | - |
| 1778075700 | 18.89° C | 70% | 997.9 hPa | 0 mm | - | - | - |
| 1778075399 | 18.89° C | 70% | 997.6 hPa | 0 mm | - | - | - |
| 1778075107 | 18.33° C | 71% | 997.8 hPa | 0 mm | - | - | - |
| 1778074808 | 18.33° C | 71% | 997.8 hPa | 0 mm | - | - | - |
| 1778074499 | 18.33° C | 71% | 997.6 hPa | 0 mm | - | - | - |
| 1778074207 | 18.33° C | 70% | 997.5 hPa | 0 mm | - | - | - |
| 1778073908 | 18.33° C | 69% | 997.7 hPa | 0 mm | - | - | - |
| 1778073599 | 18.33° C | 70% | 997.5 hPa | 0 mm | - | - | - |
* Rain latest hour (hover to see other rain measurements)
** Current wind speed in m/s (hover to see current wind gust speed)